Regional Weather Roundup
Issued by NWS

Home | Current Version | Previous Version | Graphics & Text | Print | Product List | Glossary On
Versions: 1 2 3 4 5 6 7 8 9 10 11 12 13 14 15 16 17 18 19 20 21 22 23 24 25 26 27 28 29 30 31 32 33 34 35 36 37 38 39 40 41 42 43 44 45 46 47 48 49 50
000
ASUS43 KFSD 111602
RWRSD

WEATHER ROUNDUP FOR SOUTH DAKOTA
NATIONAL WEATHER SERVICE SIOUX FALLS SD
1000 AM CST MON DEC 11 2017

NOTE: "FAIR" INDICATES FEW OR NO CLOUDS BELOW 12,000 FEET WITH NO
SIGNIFICANT WEATHER AND/OR OBSTRUCTIONS TO VISIBILITY.


SDZ001>005-009-010-012>017-111700-
NORTHWEST AND NORTH CENTRAL SOUTH DAKOTA

CITY           SKY/WX    TMP DP  RH WIND       PRES   REMARKS
BUFFALO          N/A     37  27  67 NW31G41   30.19R
FAITH            N/A     37  29  72 N33G40    30.21R
MOBRIDGE       CLOUDY    39  31  72 NW26G36   30.09R
$$

SDZ012>016-024>037-041>051-057-063-072>074-111700-
SOUTHWEST AND SOUTH CENTRAL SOUTH DAKOTA

CITY           SKY/WX    TMP DP  RH WIND       PRES   REMARKS
RAPID CTY ARPT PTSUNNY   43  20  39 NW40G53   30.22R
PIERRE         CLOUDY    41  30  65 NW29G40   30.14R
CUSTER         CLOUDY    38   3  23 NW18G37   30.19R
ELLSWORTH AFB  PTSUNNY   42  20  41 NW36G47   30.22R
PHILIP         CLOUDY    42  28  57 NW35G48   30.19R
PINE RIDGE     MOSUNNY   41  21  44 NW10      30.26R
SPEARFISH      FAIR      37  19  48 NW16G26   30.32R
WINNER         CLOUDY    44  29  55 NW32G44   30.13R
$$

SDZ004>011-016>023-039-040-111700-
NORTHEAST SOUTH DAKOTA

CITY           SKY/WX    TMP DP  RH WIND       PRES   REMARKS
ABERDEEN       CLOUDY    38  33  82 N24G39    30.04R
WATERTOWN      CLOUDY    34  32  92 N28G38    29.93R WCI  21
BROOKINGS      MIX PCPN  36  33  89 NW23G30   29.91R
SISSETON         N/A     34  30  85 N31G43    29.96R WCI  20
$$

SDZ017-020-022-023-036>040-048>070-111700-
SOUTHEAST SOUTH DAKOTA

CITY           SKY/WX    TMP DP  RH WIND       PRES   REMARKS
SIOUX FALLS    LGT RAIN  39  36  89 NW28G35   29.93R
HURON          CLOUDY    41  33  73 NW30G38   30.01R
CHAMBERLAIN    CLOUDY    43  32  65 NW26G38   30.10R
MITCHELL       CLOUDY    42  33  70 NW30G40   30.02R
YANKTON        CLOUDY    43  32  65 NW26G32   29.99R
$$

ABBREVIATIONS USED IN REMARKS
   TC - TEMPERATURE IN CELSIUS
  WCI - WIND CHILL INDEX
   HX - HEAT INDEX
  VSB - VISIBILITY





USA.gov is the U.S. government's official web portal to all federal, state and local government web resources and services.